AMOS-4                  
1 39237U 13045A   19258.87896566 -.00000002  00000-0  00000-0 0  9990
2 39237   0.0128 204.1826 0001969 304.9385 226.8673  1.00274630 22222
SL-23 R/B               
1 39238U 13045B   19259.27511508 -.00000084  00000-0  00000+0 0  9995
2 39238  26.1902 209.7709 6363443  11.4749 357.8534  2.10659777 46476